sat.trackr.live / text

‹ back to catalog

STARLINK-34891

NORAD 65373 · 2025-190Y

PAYLOAD ACTIVE UNKNOWN

§ Identity

Operator
Country
US
Launch date
2025-08-28
Launch site
AFETR
Launch vehicle
Mass (kg)
RCS (m²)

Purposes: comms

External: N2YO · Heavens-Above · Gunter

§ Orbital elements

Epoch: 2026-09-20T11:47:25.664064Z

Period
93.85 min
Inclination
53.1585°
Eccentricity
0.0001363
Mean motion
15.34411227 rev/d
Perigee alt
461.7 km
Apogee alt
463.6 km
Semi-major
6,840.8 km
B*
5.2613e-4
RAAN
339.5445°
Arg perigee
157.2702°
Mean anomaly
202.8361°
Rev number
5,911

§ Raw data

STARLINK-348911 65373U 25190Y   26263.49126926  .00017448  00000+0  52613-3 0  99922 65373  53.1585 339.5445 0001363 157.2702 202.8361 15.34411227 59111

JSON: /api/v1/satellites/65373 · /tle

For live sub-satellite position, see the globe view (requires WebGL).

§ Visibility from observer

Set your observer location to see the next 7 days of passes ≥ 10°. The values pass through the URL so the page stays shareable.

No JS? Fill the form by hand. The geolocation button needs JavaScript.